Overview Statistics Trail Chart Weather Telemetry Raw packets
 

This is the latest recevied weather packets stored in our database for station/object KG5MMT-15. If no packets are shown the sender has not sent any weather packets the latest 10 day(s).

<< 27 28 29 30 31 32 33 >>
Time Temp. Humidity Pressure Rain* Wind** Luminosity Snow
1788510763 18.33° C 65% 0 hPa 0 mm - - -
1788510463 18.33° C 63% 0 hPa 0 mm - - -
1788510163 18.33° C 64% 0 hPa 0 mm - - -
1788509863 19.44° C 60% 0 hPa 0 mm - - -
1788509563 19.44° C 59% 0 hPa 0 mm - - -
1788509263 19.44° C 55% 0 hPa 0 mm - - -
1788508963 20° C 54% 0 hPa 0 mm - - -
1788508663 20° C 50% 0 hPa 0 mm - - -
1788508363 20.56° C 51% 0 hPa 0 mm - - -
1788508063 20.56° C 52% 0 hPa 0 mm - - -
1788507763 20.56° C 51% 0 hPa 0 mm - - -
1788507463 20.56° C 48% 0 hPa 0 mm - - -
1788507163 20.56° C 47% 0 hPa 0 mm - - -
1788506863 21.11° C 48% 0 hPa 0 mm - - -
1788506563 21.11° C 47% 0 hPa 0 mm - - -
1788506263 21.67° C 44% 0 hPa 0 mm - - -
1788505963 21.67° C 44% 0 hPa 0 mm - - -
1788505663 22.22° C 43% 0 hPa 0 mm - - -
1788505363 22.22° C 43% 0 hPa 0 mm - - -
1788505063 22.22° C 42% 0 hPa 0 mm - - -
1788504763 22.22° C 41% 0 hPa 0 mm - - -
1788504463 22.78° C 41% 0 hPa 0 mm - - -
1788504163 22.78° C 40% 0 hPa 0 mm - - -
1788503863 22.78° C 40% 0 hPa 0 mm - - -
1788503563 22.78° C 39% 0 hPa 0 mm - - -

* Rain latest hour (hover to see other rain measurements)
** Current wind speed in m/s (hover to see current wind gust speed)